FW9914 Weather Reports


Display with metric or nautical units.
time (UTC)temp
F
wind
direction
speed
MPH
gust
MPH
rain 1hr
in
rain 24hr
in
rain mn
in
humidity
%
barometer
mb
20260906230112 57 96 0.0 0.0 0.00 0.00 0.00 96 1017.7
20260906220147 56 96 0.0 0.0 0.00 0.00 0.00 96 1018.0
20260906210122 57 96 0.0 0.0 0.00 0.00 0.00 96 1018.1
20260906200146 56 96 0.0 0.0 0.00 0.00 0.00 96 1018.6
20260906190128 55 96 0.0 0.0 0.00 0.00 0.00 94 1019.0
20260906180318 56 96 0.0 0.0 0.00 0.00 0.00 92 1019.5
20260906170148 55 96 0.0 0.0 0.00 0.00 0.00 89 1019.7
20260906160135 54 96 0.0 0.0 0.00 0.00 0.00 93 1020.0
20260906150107 52 96 0.0 0.0 0.00 0.00 0.00 93 1020.2
20260906140147 52 96 0.0 0.0 0.00 0.00 0.00 93 1020.2
20260906130144 52 96 0.0 0.0 0.00 0.00 0.00 94 1020.3
20260906120151 52 96 0.0 0.0 0.00 0.00 0.00 94 1021.1
20260906110144 52 96 0.0 0.0 0.00 0.00 0.00 94 1020.3
20260906100123 52 96 0.0 0.0 0.00 0.00 0.00 94 1021.3
20260906090223 52 96 0.0 0.0 0.00 0.00 0.00 94 1021.6
20260906080133 52 96 0.0 0.0 0.00 0.00 0.00 94 1022.0
20260906070100 52 96 0.0 0.0 0.00 0.00 0.00 93 1022.3
20260906050120 52 96 0.0 0.0 0.00 0.00 0.00 92 1022.4
20260906040137 53 96 0.0 0.0 0.00 0.00 0.00 91 1022.5
20260906030146 53 96 0.0 0.0 0.00 0.00 0.00 90 1022.5
20260906020058 54 96 0.0 0.0 0.00 0.00 0.00 88 1022.4
20260906010131 55 96 0.0 0.0 0.00 0.00 0.00 89 1021.8
20260906000108 55 96 0.0 0.0 0.00 0.00 0.00 88 1021.8